�N����,����,�~����,�C��,���x,�C��,����,���ϕ���,�ő�u�ԕ���,�ő厞����,���˗�,�I�_���x,�n�����x,�ő啗���N��,DTYPE
"21/03/07","00:10",0.0,5.8,78.4,1022.3,332.2,2.8,5.4,326.6,0.00,2.4,130.0,"00:01:52",1
"21/03/07","00:20",0.0,5.7,78.6,1022.3,337.8,2.7,5.1,322.7,0.00,2.3,130.0,"00:11:12",1
"21/03/07","00:30",0.0,5.8,78.4,1022.5,313.6,3.6,6.7,321.2,0.00,2.4,130.0,"00:26:16",1
"21/03/07","00:40",0.0,5.6,78.0,1022.3,324.5,2.6,5.1,333.2,0.00,2.1,130.0,"00:31:44",1
"21/03/07","00:50",0.0,5.6,77.8,1022.7,321.5,3.1,5.2,303.4,0.00,2.1,130.0,"00:48:16",1
"21/03/07","01:00",0.0,5.7,77.3,1022.7,315.3,4.1,8.3,321.8,0.00,2.1,130.0,"00:58:16",1
"21/03/07","01:10",0.0,5.7,76.6,1022.5,327.4,3.5,7.5,330.3,0.00,2.0,130.0,"01:00:08",1
"21/03/07","01:20",0.0,5.7,76.4,1022.7,328.9,4.5,7.5,336.3,0.00,1.9,130.0,"01:15:28",1
"21/03/07","01:30",0.0,5.6,76.4,1023.0,324.7,4.5,6.2,308.9,0.00,1.8,130.0,"01:24:08",1
"21/03/07","01:40",0.0,5.6,76.7,1022.7,323.6,4.5,6.8,324.1,0.00,1.9,130.0,"01:36:40",1
"21/03/07","01:50",0.0,5.5,76.9,1023.0,319.2,4.1,8.3,328.8,0.00,1.8,130.0,"01:49:12",1
"21/03/07","02:00",0.0,5.5,76.7,1022.5,330.5,3.1,6.6,322.5,0.00,1.8,130.0,"01:51:12",1
"21/03/07","02:10",0.0,5.4,76.5,1022.5,324.2,3.5,5.9,335.2,0.00,1.6,130.0,"02:07:36",1
"21/03/07","02:20",0.0,5.4,76.3,1022.7,312.0,2.6,5.7,328.5,0.00,1.6,130.0,"02:11:44",1
"21/03/07","02:30",0.0,5.4,76.0,1022.3,314.8,2.6,4.9,330.9,0.00,1.6,130.0,"02:23:36",1
"21/03/07","02:40",0.0,5.4,75.7,1022.5,323.1,2.5,7.2,340.4,0.00,1.5,130.0,"02:34:16",1
"21/03/07","02:50",0.0,5.4,75.5,1022.0,325.8,2.3,6.0,339.6,0.00,1.5,130.0,"02:47:28",1
"21/03/07","03:00",0.0,5.5,75.3,1022.3,328.9,2.6,4.9,340.5,0.00,1.5,130.0,"02:54:48",1
"21/03/07","03:10",0.0,5.5,75.3,1022.7,308.3,2.7,4.9,327.4,0.00,1.5,130.0,"03:09:04",1
"21/03/07","03:20",0.0,5.4,75.7,1022.3,304.7,2.8,4.2,345.4,0.00,1.5,130.0,"03:16:56",1
"21/03/07","03:30",0.0,5.4,76.2,1022.3,312.7,4.2,7.5,322.6,0.00,1.6,130.0,"03:26:00",1
"21/03/07","03:40",0.0,5.4,76.3,1022.5,313.6,4.0,6.7,309.3,0.00,1.6,130.0,"03:37:52",1
"21/03/07","03:50",0.0,5.4,76.5,1022.7,322.8,3.9,5.5,325.3,0.00,1.6,130.0,"03:41:04",1
"21/03/07","04:00",0.0,5.3,76.4,1022.5,323.0,3.7,7.4,319.3,0.00,1.5,130.0,"03:51:52",1
"21/03/07","04:10",0.0,5.2,76.7,1022.7,319.1,2.2,5.7,322.6,0.00,1.5,130.0,"04:04:32",1
"21/03/07","04:20",0.0,5.1,77.0,1022.5,306.2,3.4,4.8,316.8,0.00,1.4,130.0,"04:12:40",1
"21/03/07","04:30",0.0,5.1,77.2,1022.7,310.2,2.8,5.7,315.3,0.00,1.5,130.0,"04:28:56",1
"21/03/07","04:40",0.0,5.0,77.4,1022.5,315.2,3.7,7.7,325.2,0.00,1.4,130.0,"04:39:12",1
"21/03/07","04:50",0.0,5.0,77.4,1022.7,306.1,3.4,6.7,323.8,0.00,1.4,130.0,"04:40:16",1
"21/03/07","05:00",0.0,4.8,77.4,1022.5,321.7,3.2,4.8,357.1,0.00,1.2,130.0,"04:50:40",1
"21/03/07","05:10",0.0,4.6,77.4,1022.7,289.1,2.0,3.3,320.7,0.00,1.0,130.0,"05:00:40",1
"21/03/07","05:20",0.0,4.6,77.5,1022.5,304.8,3.2,5.1,334.8,0.00,1.1,130.0,"05:12:08",1
"21/03/07","05:30",0.0,4.4,77.7,1022.5,326.1,2.2,4.7,318.7,0.00,0.9,130.0,"05:21:28",1
"21/03/07","05:40",0.0,4.1,78.9,1022.5,320.3,2.5,4.4,320.2,0.00,0.8,130.0,"05:38:16",1
"21/03/07","05:50",0.0,4.3,79.6,1022.7,324.1,3.9,6.3,325.9,0.00,1.1,130.0,"05:42:40",1
"21/03/07","06:00",0.0,4.3,79.8,1022.5,317.5,3.7,5.7,326.3,0.00,1.2,130.0,"05:51:04",1
"21/03/07","06:10",0.0,4.3,80.0,1022.0,329.0,4.0,7.5,333.2,0.00,1.2,130.0,"06:05:44",1
"21/03/07","06:20",0.0,4.3,80.1,1022.3,320.4,3.6,7.4,322.0,0.00,1.2,130.0,"06:13:20",1
"21/03/07","06:30",0.0,4.2,80.1,1022.5,300.1,2.1,4.8,310.7,0.00,1.1,130.0,"06:24:00",1
"21/03/07","06:40",0.0,4.1,80.2,1022.3,313.7,2.3,4.4,329.2,0.00,1.0,130.0,"06:37:04",1
"21/03/07","06:50",0.0,4.1,80.3,1022.3,292.6,1.2,3.3,314.8,0.00,1.1,130.0,"06:42:16",1
"21/03/07","07:00",0.0,4.3,80.2,1022.7,329.2,1.6,3.4,354.9,0.00,1.2,130.0,"06:53:36",1
"21/03/07","07:10",0.0,4.6,79.8,1023.0,345.6,2.6,5.9,336.2,0.01,1.5,130.0,"07:06:24",1
"21/03/07","07:20",0.0,4.9,79.2,1022.7,328.9,2.6,4.8,337.2,0.02,1.6,130.0,"07:14:00",1
"21/03/07","07:30",0.0,5.2,78.5,1023.0,306.6,2.7,4.8,328.2,0.03,1.8,130.0,"07:25:12",1
"21/03/07","07:40",0.0,5.6,77.3,1023.0,331.0,2.7,5.8,347.1,0.05,2.0,130.0,"07:36:06",1
"21/03/07","07:50",0.0,6.0,75.6,1023.2,351.4,2.2,8.1,316.1,0.07,2.1,130.0,"07:43:36",1
"21/03/07","08:00",0.0,6.3,73.8,1023.4,341.5,2.8,6.3,320.4,0.09,2.0,130.0,"07:56:12",1
"21/03/07","08:10",0.0,6.4,72.3,1023.4,334.7,2.6,8.3,332.7,0.09,1.8,130.0,"08:09:40",1
"21/03/07","08:20",0.0,6.5,71.8,1023.4,344.8,3.2,7.9,336.3,0.12,1.8,130.0,"08:19:26",1
"21/03/07","08:30",0.0,6.7,71.5,1023.4,334.0,4.1,8.2,324.4,0.18,2.0,130.0,"08:20:58",1
"21/03/07","08:40",0.0,7.0,70.8,1023.7,329.7,4.4,9.8,321.4,0.20,2.1,130.0,"08:32:58",1
"21/03/07","08:50",0.0,7.3,70.0,1023.7,344.3,3.0,6.4,344.5,0.20,2.2,130.0,"08:48:40",1
"21/03/07","09:00",0.0,7.4,69.7,1023.7,339.7,4.0,7.8,335.0,0.23,2.3,130.0,"08:53:02",1
"21/03/07","09:10",0.0,7.6,69.9,1023.9,334.8,3.9,6.8,326.4,0.27,2.5,130.0,"09:05:06",1
"21/03/07","09:20",0.0,7.7,69.5,1023.2,332.0,4.4,6.7,333.1,0.29,2.5,130.0,"09:16:42",1
"21/03/07","09:30",0.0,8.0,68.4,1023.7,339.8,3.4,6.3,320.8,0.28,2.6,130.0,"09:25:52",1
"21/03/07","09:40",0.0,8.2,67.5,1023.4,340.6,3.2,6.0,340.5,0.32,2.6,130.0,"09:34:08",1
"21/03/07","09:50",0.0,8.5,66.4,1023.7,336.5,3.0,5.8,346.9,0.33,2.6,130.0,"09:41:52",1
"21/03/07","10:00",0.0,8.9,65.2,1023.2,344.3,2.6,5.2,344.3,0.35,2.8,130.0,"09:53:04",1
"21/03/07","10:10",0.0,9.4,64.0,1023.2,355.2,2.0,5.1,340.2,0.41,3.0,130.0,"10:01:52",1
"21/03/07","10:20",0.0,10.1,63.6,1023.0,331.5,1.2,3.3,341.7,0.43,3.6,130.0,"10:15:52",1
"21/03/07","10:30",0.0,9.9,62.3,1023.2,316.9,2.3,5.2,327.6,0.45,3.1,130.0,"10:21:52",1
"21/03/07","10:40",0.0,9.7,62.9,1023.2,319.2,3.5,6.2,335.5,0.47,3.0,130.0,"10:36:24",1
"21/03/07","10:50",0.0,10.2,62.1,1023.0,311.4,2.8,7.4,335.4,0.48,3.3,130.0,"10:48:58",1
"21/03/07","11:00",0.0,10.6,62.1,1022.7,324.2,2.8,6.2,336.8,0.50,3.7,130.0,"10:55:36",1
"21/03/07","11:10",0.0,11.0,59.7,1022.3,332.3,2.5,4.9,316.1,0.51,3.5,130.0,"11:04:32",1
"21/03/07","11:20",0.0,11.2,59.4,1022.5,317.2,2.5,4.7,336.8,0.52,3.6,130.0,"11:16:32",1
"21/03/07","11:30",0.0,12.4,57.0,1022.5,286.4,1.1,3.4,342.9,0.54,4.2,130.0,"11:23:20",1
"21/03/07","11:40",0.0,12.3,55.5,1022.0,152.8,1.0,1.8,117.5,0.49,3.7,130.0,"11:30:48",1
"21/03/07","11:50",0.0,12.2,54.8,1022.3,230.8,1.3,2.5,217.4,0.50,3.4,130.0,"11:46:32",1
"21/03/07","12:00",0.0,12.2,55.9,1022.0,177.5,1.5,3.7,198.4,0.45,3.7,130.0,"11:58:40",1
"21/03/07","12:10",0.0,12.5,55.6,1021.5,144.6,2.0,4.7,169.2,0.59,3.9,130.0,"12:00:02",1
"21/03/07","12:20",0.0,12.6,55.7,1021.3,177.1,2.3,3.7,128.0,0.56,4.0,130.0,"12:13:20",1
"21/03/07","12:30",0.0,12.6,55.0,1021.5,181.5,2.0,3.7,236.2,0.51,3.8,130.0,"12:25:52",1
"21/03/07","12:40",0.0,12.6,54.3,1021.3,195.0,1.5,3.3,165.8,0.39,3.7,130.0,"12:39:44",1
"21/03/07","12:50",0.0,12.5,54.5,1021.1,163.7,1.7,3.3,146.7,0.32,3.6,130.0,"12:47:52",1
"21/03/07","13:00",0.0,12.8,53.3,1020.8,215.0,1.5,2.8,148.0,0.38,3.6,130.0,"12:50:08",1
"21/03/07","13:10",0.0,13.2,53.0,1020.6,204.3,1.7,3.5,221.0,0.45,3.9,130.0,"13:03:28",1
"21/03/07","13:20",0.0,13.4,53.0,1020.4,176.9,1.5,3.1,213.9,0.43,4.1,130.0,"13:10:40",1
"21/03/07","13:30",0.0,13.2,53.5,1020.1,158.2,2.1,4.3,131.0,0.45,4.0,130.0,"13:23:20",1
"21/03/07","13:40",0.0,12.7,55.2,1020.1,158.0,1.8,3.7,129.8,0.28,4.0,130.0,"13:30:32",1
"21/03/07","13:50",0.0,12.8,56.2,1019.4,125.4,1.7,3.7,139.4,0.28,4.3,130.0,"13:49:44",1
"21/03/07","14:00",0.0,12.4,56.7,1019.7,133.8,2.0,4.2,129.6,0.22,4.1,130.0,"13:50:32",1
"21/03/07","14:10",0.0,11.9,58.0,1019.7,130.3,1.6,3.1,176.4,0.13,3.9,130.0,"14:04:56",1
"21/03/07","14:20",0.0,12.3,58.7,1019.9,164.0,1.3,2.8,125.7,0.18,4.5,130.0,"14:18:00",1
"21/03/07","14:30",0.0,11.9,59.2,1019.4,158.1,2.0,4.1,143.7,0.15,4.2,130.0,"14:21:20",1
"21/03/07","14:40",0.0,11.9,60.4,1019.9,149.5,1.6,3.1,117.1,0.14,4.5,130.0,"14:30:40",1
"21/03/07","14:50",0.0,11.6,60.8,1019.4,163.1,1.7,2.6,148.4,0.10,4.3,130.0,"14:43:36",1
"21/03/07","15:00",0.0,11.2,62.1,1019.7,137.7,2.2,4.2,129.1,0.09,4.3,130.0,"14:56:24",1
"21/03/07","15:10",0.0,11.2,62.0,1019.7,108.0,1.2,2.8,110.6,0.11,4.2,130.0,"15:00:48",1
"21/03/07","15:20",0.0,11.1,62.4,1019.9,125.7,2.0,3.9,122.7,0.12,4.2,130.0,"15:15:44",1
"21/03/07","15:30",0.0,11.2,62.6,1019.7,116.6,2.0,4.0,115.7,0.14,4.4,130.0,"15:21:36",1
"21/03/07","15:40",0.0,11.2,63.0,1019.7,126.8,2.0,4.0,133.9,0.12,4.5,130.0,"15:39:20",1
"21/03/07","15:50",0.0,10.8,63.5,1019.4,129.7,2.1,4.1,139.2,0.08,4.2,130.0,"15:46:00",1
"21/03/07","16:00",0.0,10.7,63.7,1019.9,123.8,2.3,4.1,140.3,0.09,4.1,130.0,"15:54:24",1
"21/03/07","16:10",0.0,10.8,63.8,1019.7,125.4,2.0,3.5,126.1,0.11,4.3,130.0,"16:05:20",1
"21/03/07","16:20",0.0,10.6,63.8,1019.4,133.2,2.0,3.2,136.2,0.09,4.1,130.0,"16:10:56",1
"21/03/07","16:30",0.0,10.5,64.5,1019.7,115.7,1.7,3.1,122.9,0.05,4.1,130.0,"16:24:00",1
"21/03/07","16:40",0.0,10.5,64.5,1019.7,123.8,1.5,2.8,122.3,0.03,4.1,130.0,"16:30:24",1
"21/03/07","16:50",0.0,10.4,65.0,1019.9,130.5,1.3,2.5,119.9,0.02,4.2,130.0,"16:40:16",1
"21/03/07","17:00",0.0,10.1,65.8,1019.9,130.4,1.8,3.3,138.2,0.02,4.0,130.0,"16:54:32",1
"21/03/07","17:10",0.0,10.0,66.2,1019.7,129.0,1.3,3.1,130.6,0.00,4.0,130.0,"17:06:50",1
"21/03/07","17:20",0.0,9.9,67.3,1019.9,134.2,1.1,2.4,122.2,0.00,4.2,130.0,"17:13:38",1
"21/03/07","17:30",0.0,9.8,68.2,1019.9,93.9,1.0,2.1,108.5,0.00,4.3,130.0,"17:20:08",1
"21/03/07","17:40",0.0,9.7,68.7,1019.9,102.9,1.1,2.5,109.0,0.00,4.3,130.0,"17:35:20",1
"21/03/07","17:50",0.0,9.5,69.0,1020.1,122.1,1.1,2.6,123.2,0.00,4.1,130.0,"17:42:54",1
"21/03/07","18:00",0.0,9.5,69.4,1020.1,84.4,1.0,2.4,108.8,0.00,4.2,130.0,"17:54:12",1
"21/03/07","18:10",0.0,9.5,69.8,1020.1,1.2,1.3,2.6,354.2,0.00,4.3,130.0,"18:08:10",1
"21/03/07","18:20",0.0,9.2,70.1,1020.4,349.2,2.0,4.3,31.2,0.00,4.1,130.0,"18:18:42",1
"21/03/07","18:30",0.0,9.1,70.6,1020.6,344.2,2.0,4.0,354.1,0.00,4.1,130.0,"18:22:08",1
"21/03/07","18:40",0.0,8.9,70.9,1020.1,351.4,2.1,3.4,344.7,0.00,4.0,130.0,"18:30:40",1
"21/03/07","18:50",0.0,8.9,71.3,1020.4,336.9,2.1,3.5,332.3,0.00,4.0,130.0,"18:49:36",1
"21/03/07","19:00",0.0,8.7,71.6,1020.6,343.2,2.2,4.2,347.5,0.00,3.9,130.0,"18:50:16",1
"21/03/07","19:10",0.0,8.7,72.2,1020.6,330.4,2.3,4.7,342.8,0.00,4.0,130.0,"19:07:04",1
"21/03/07","19:20",0.0,8.5,72.6,1020.6,340.9,1.7,2.7,343.3,0.00,3.9,130.0,"19:17:36",1
"21/03/07","19:30",0.0,8.5,72.9,1020.6,338.3,1.7,2.6,330.5,0.00,4.0,130.0,"19:27:44",1
"21/03/07","19:40",0.0,8.4,73.4,1020.6,320.0,2.2,3.2,318.2,0.00,4.0,130.0,"19:34:00",1
"21/03/07","19:50",0.0,8.3,73.8,1021.1,322.7,2.6,3.3,315.6,0.00,3.9,130.0,"19:44:00",1
"21/03/07","20:00",0.0,8.2,74.1,1020.8,316.9,2.5,3.4,333.2,0.00,3.9,130.0,"19:55:20",1
"21/03/07","20:10",0.0,8.2,74.4,1020.8,316.3,2.6,4.0,312.6,0.00,4.0,130.0,"20:07:52",1
"21/03/07","20:20",0.0,8.2,74.7,1020.8,315.1,2.3,3.7,318.3,0.00,4.0,130.0,"20:17:04",1
"21/03/07","20:30",0.0,8.1,74.9,1020.8,316.6,2.3,3.4,339.1,0.00,4.0,130.0,"20:25:44",1
"21/03/07","20:40",0.0,8.0,75.2,1020.8,307.0,2.5,3.2,333.0,0.00,3.9,130.0,"20:34:24",1
"21/03/07","20:50",0.0,8.0,75.4,1020.8,320.9,2.5,3.4,322.0,0.00,4.0,130.0,"20:48:40",1
"21/03/07","21:00",0.0,8.0,75.7,1020.6,308.5,2.5,3.6,322.2,0.00,4.0,130.0,"20:51:36",1
"21/03/07","21:10",0.0,8.0,76.0,1020.8,304.0,2.1,2.8,322.2,0.00,4.1,130.0,"21:08:16",1
"21/03/07","21:20",0.0,7.9,76.4,1020.6,317.2,2.1,2.9,328.9,0.00,4.1,130.0,"21:18:24",1
"21/03/07","21:30",0.0,7.9,76.7,1020.8,324.3,2.3,3.6,320.6,0.00,4.1,130.0,"21:28:00",1
"21/03/07","21:40",0.0,7.9,77.2,1020.8,327.8,2.2,3.4,324.2,0.00,4.2,130.0,"21:39:28",1
"21/03/07","21:50",0.0,7.7,77.4,1021.1,325.0,3.9,5.7,336.2,0.00,4.0,130.0,"21:46:32",1
"21/03/07","22:00",0.0,7.6,77.6,1020.6,325.9,3.5,5.8,321.0,0.00,4.0,130.0,"21:50:24",1
"21/03/07","22:10",0.0,7.5,77.9,1021.3,330.5,3.1,4.2,336.4,0.00,3.9,130.0,"22:01:36",1
"21/03/07","22:20",0.0,7.5,78.0,1021.3,320.8,3.5,4.7,324.4,0.00,4.0,130.0,"22:11:20",1
"21/03/07","22:30",0.0,7.5,78.2,1021.3,315.5,3.6,5.1,335.0,0.00,4.0,130.0,"22:22:56",1
"21/03/07","22:40",0.0,7.4,78.3,1020.8,306.7,3.0,4.1,303.5,0.00,3.9,130.0,"22:36:24",1
"21/03/07","22:50",0.0,7.3,78.6,1020.6,321.2,3.6,4.8,325.6,0.00,3.9,130.0,"22:41:20",1
"21/03/07","23:00",0.0,7.3,78.7,1020.4,322.7,3.6,5.0,336.1,0.00,3.9,130.0,"22:56:48",1
"21/03/07","23:10",0.0,7.2,78.9,1020.6,322.4,3.6,4.5,330.4,0.00,3.8,130.0,"23:01:20",1
"21/03/07","23:20",0.0,7.0,79.0,1020.6,321.7,4.1,5.5,337.1,0.00,3.7,130.0,"23:14:40",1
"21/03/07","23:30",0.0,7.0,79.2,1020.1,326.0,3.6,5.5,316.0,0.00,3.7,130.0,"23:21:28",1
"21/03/07","23:40",0.0,6.9,79.4,1020.6,322.2,3.5,6.2,329.2,0.00,3.6,130.0,"23:34:08",1
"21/03/07","23:50",0.0,6.9,79.5,1020.4,326.2,4.0,5.4,334.7,0.00,3.6,130.0,"23:44:48",1
"21/03/07","24:00",0.0,6.8,79.8,1020.1,323.5,3.6,6.2,333.9,0.00,3.6,130.0,"23:57:04",1
